Regional Weather Roundup
Issued by NWS

Home | Current Version | Previous Version | Text Only | Print | Product List | Glossary Off
Versions: 1 2 3 4 5 6 7 8 9 10 11 12 13 14 15 16 17 18 19 20 21 22 23 24 25 26 27 28 29 30 31 32 33 34 35 36 37 38 39 40 41 42 43 44 45 46 47 48 49 50

000
ASUS43 KFSD 282102
RWRSD

WEATHER ROUNDUP FOR SOUTH DAKOTA
NATIONAL WEATHER SERVICE SIOUX FALLS SD
400 PM CDT FRI APR 28 2017

NOTE: "FAIR" INDICATES FEW OR NO CLOUDS BELOW 12,000 FEET WITH NO
SIGNIFICANT WEATHER AND/OR OBSTRUCTIONS TO VISIBILITY.


SDZ001>005-009-010-012>017-282200-
NORTHWEST AND NORTH CENTRAL SOUTH DAKOTA

CITY           SKY/WX    TMP DP  RH WIND       PRES   REMARKS
BUFFALO          N/A     51  25  36 NE9G21    29.97R
FAITH            N/A     51  26  37 E20       30.01R
MOBRIDGE       PTSUNNY   57  12  17 NE15G22   30.01R
$$

SDZ012>016-024>037-041>051-057-063-072>074-282200-
SOUTHWEST AND SOUTH CENTRAL SOUTH DAKOTA

CITY           SKY/WX    TMP DP  RH WIND       PRES   REMARKS
RAPID CTY ARPT PTSUNNY   46  27  47 NE12G17   30.00R
PIERRE         CLOUDY    54  24  31 E23G29    29.99R
CUSTER         CLOUDY    33  22  63 NE13G22   29.95R WCI  24
ELLSWORTH AFB  CLOUDY    46  26  46 E8        30.01R
PHILIP         MOSUNNY   49  25  39 E12G23    30.01R
PINE RIDGE     CLOUDY    44  30  57 NE13      29.96R
SPEARFISH      FAIR      43  27  52 E8        30.02R
WINNER         FAIR      53  27  36 NE14G23   29.96F
$$

SDZ004>011-016>023-039-040-282200-
NORTHEAST SOUTH DAKOTA

CITY           SKY/WX    TMP DP  RH WIND       PRES   REMARKS
ABERDEEN       CLOUDY    53  15  22 NE16G23   30.03R
WATERTOWN      MOSUNNY   48  22  35 N18       29.98R
BROOKINGS      CLOUDY    49  27  42 NE17G28   29.95S
SISSETON         N/A     53  22  29 N15G23    30.00S
$$

SDZ017-020-022-023-036>040-048>070-282200-
SOUTHEAST SOUTH DAKOTA

CITY           SKY/WX    TMP DP  RH WIND       PRES   REMARKS
SIOUX FALLS    CLOUDY    49  34  56 NE14      29.96R
HURON          PTSUNNY   54  24  31 NE17      29.98R
CHAMBERLAIN    PTSUNNY   54  28  37 NE12G20   29.97S
MITCHELL       CLOUDY    52  28  39 NE13G18   29.97S
YANKTON        CLOUDY    46  28  49 NE13      29.94S
$$

ABBREVIATIONS USED IN REMARKS
   TC - TEMPERATURE IN CELSIUS
  WCI - WIND CHILL INDEX
   HX - HEAT INDEX
  VSB - VISIBILITY




USA.gov is the U.S. government's official web portal to all federal, state and local government web resources and services.